NSZ3290 EKCH-BKPR

Flight info

Callsign NSZ3290
Flight time 2h 20m
Altitude 37000
Route SALLO M44 KOGIM M725 HDO DCT LANUX DCT SASAL DCT VEBAL DCT GUBOK DCT NILKU DCT AKIKA DCT RINAV DCT ARBER ARBER1D
Aircraft B738/M-SDE2E3FGHIRWXY/LB1

Departure

Time 2026-04-25 17:00
Airport Copenhagen Kastrup Airport (EKCH)

Arrival

Time 2026-04-25 19:21
Airport Priština Adem Jashari International Airport (BKPR)
Time Latitude Longitude Altitude Speed Heading
2026-04-25 16:25 55.62660 12.64893 25 ft 0 kts 101°
2026-04-25 16:44 55.62662 12.64872 27 ft 4 kts 101°
2026-04-25 16:45 55.62668 12.64825 24 ft 4 kts 101°
2026-04-25 16:45 55.62673 12.64779 24 ft 4 kts 101°
2026-04-25 16:45 55.62678 12.64738 24 ft 1 kts 101°
2026-04-25 16:52 55.62678 12.64739 24 ft 1 kts 101°
2026-04-25 16:52 55.62664 12.64776 24 ft 0 kts 140°
2026-04-25 16:52 55.62656 12.64783 26 ft 4 kts 153°
2026-04-25 16:52 55.62641 12.64787 23 ft 6 kts 182°
2026-04-25 16:53 55.62467 12.64775 25 ft 17 kts 178°
2026-04-25 16:53 55.62347 12.64791 24 ft 17 kts 177°
2026-04-25 16:53 55.62233 12.64789 23 ft 13 kts 191°
2026-04-25 16:54 55.62212 12.64773 23 ft 0 kts 213°
2026-04-25 16:55 55.62209 12.64770 23 ft 2 kts 213°
2026-04-25 16:55 55.62170 12.64724 26 ft 12 kts 213°
2026-04-25 16:55 55.62074 12.64606 23 ft 22 kts 215°
2026-04-25 16:55 55.61952 12.64398 25 ft 23 kts 251°
2026-04-25 16:56 55.61919 12.64124 26 ft 21 kts 237°
2026-04-25 16:56 55.61833 12.64007 24 ft 9 kts 216°
2026-04-25 16:56 55.61784 12.63952 24 ft 8 kts 205°
2026-04-25 16:56 55.61727 12.63945 24 ft 8 kts 176°
2026-04-25 16:57 55.61685 12.63950 24 ft 0 kts 178°
2026-04-25 16:59 55.61679 12.63950 24 ft 3 kts 178°
2026-04-25 16:59 55.61633 12.63955 26 ft 10 kts 174°
2026-04-25 16:59 55.61571 12.63957 25 ft 1 kts 191°
2026-04-25 16:59 55.61551 12.63946 25 ft 7 kts 201°
2026-04-25 17:00 55.61464 12.63822 28 ft 33 kts 221°
2026-04-25 17:00 55.61090 12.63247 30 ft 109 kts 220°
2026-04-25 17:00 55.60361 12.62125 132 ft 160 kts 224°
2026-04-25 17:00 55.59465 12.60850 756 ft 170 kts 228°
2026-04-25 17:01 55.58512 12.59582 1610 ft 173 kts 219°
2026-04-25 17:01 55.57287 12.58962 2343 ft 196 kts 199°
2026-04-25 17:01 55.55819 12.58785 2722 ft 230 kts 180°
2026-04-25 17:01 55.54136 12.59071 2883 ft 253 kts 184°
2026-04-25 17:02 55.52495 12.58274 3274 ft 242 kts 219°
2026-04-25 17:02 55.51149 12.56527 3856 ft 243 kts 221°
2026-04-25 17:02 55.49722 12.54860 4401 ft 249 kts 218°
2026-04-25 17:02 55.48716 12.53788 4776 ft 251 kts 216°
2026-04-25 17:03 55.46695 12.51746 4981 ft 255 kts 215°
2026-04-25 17:03 55.45021 12.50623 5002 ft 268 kts 189°
2026-04-25 17:03 55.43167 12.51279 4999 ft 280 kts 156°
2026-04-25 17:03 55.41667 12.53424 4994 ft 283 kts 117°
2026-04-25 17:04 55.40999 12.56613 5020 ft 278 kts 101°
2026-04-25 17:04 55.40450 12.59890 5002 ft 280 kts 101°
2026-04-25 17:04 55.39982 12.63201 5001 ft 279 kts 98°
2026-04-25 17:04 55.39516 12.66510 4985 ft 278 kts 99°
2026-04-25 17:05 55.39010 12.69785 4991 ft 276 kts 100°
2026-04-25 17:05 55.37951 12.76249 4970 ft 275 kts 102°
2026-04-25 17:05 55.37404 12.79472 4964 ft 274 kts 101°
2026-04-25 17:06 55.36851 12.82720 5199 ft 281 kts 102°
2026-04-25 17:06 55.36279 12.86054 5738 ft 292 kts 102°
2026-04-25 17:06 55.35677 12.89547 6394 ft 302 kts 102°
2026-04-25 17:06 55.35062 12.93091 7207 ft 305 kts 103°
2026-04-25 17:07 55.34437 12.96684 8007 ft 310 kts 103°
2026-04-25 17:07 55.33695 13.00277 8754 ft 319 kts 118°
2026-04-25 17:07 55.32207 13.03113 9525 ft 323 kts 148°
2026-04-25 17:07 55.30227 13.05090 10258 ft 327 kts 156°
2026-04-25 17:08 55.28148 13.06913 10476 ft 351 kts 158°
2026-04-25 17:08 55.25892 13.08830 10822 ft 368 kts 158°
2026-04-25 17:08 55.23573 13.10804 11523 ft 372 kts 158°
2026-04-25 17:08 55.21254 13.12824 12375 ft 372 kts 158°
2026-04-25 17:09 55.18902 13.14880 12937 ft 385 kts 158°
2026-04-25 17:09 55.16474 13.16991 13604 ft 393 kts 158°
2026-04-25 17:09 55.14015 13.19140 14308 ft 397 kts 159°
2026-04-25 17:09 55.11540 13.21316 15059 ft 400 kts 159°
2026-04-25 17:10 55.09039 13.23509 15785 ft 403 kts 161°
2026-04-25 17:10 55.06410 13.25192 16285 ft 404 kts 176°
2026-04-25 17:10 55.03640 13.26062 16794 ft 408 kts 181°
2026-04-25 17:10 55.00809 13.26840 17421 ft 415 kts 182°
2026-04-25 17:11 54.97942 13.27622 18115 ft 420 kts 182°
2026-04-25 17:11 54.95039 13.28427 18721 ft 425 kts 182°
2026-04-25 17:11 54.92107 13.29262 19392 ft 428 kts 182°
2026-04-25 17:11 54.89165 13.30113 20103 ft 429 kts 181°
2026-04-25 17:12 54.86234 13.30990 20920 ft 427 kts 181°
2026-04-25 17:12 54.83317 13.31889 21723 ft 426 kts 181°
2026-04-25 17:12 54.80361 13.32765 22014 ft 438 kts 182°
2026-04-25 17:12 54.77316 13.33635 22242 ft 448 kts 182°
2026-04-25 17:13 54.74221 13.34523 22799 ft 452 kts 181°
2026-04-25 17:13 54.73169 13.34827 23023 ft 453 kts 181°
2026-04-25 17:13 54.67976 13.36342 23925 ft 458 kts 181°
2026-04-25 17:13 54.64826 13.37263 24362 ft 462 kts 181°
2026-04-25 17:14 54.61636 13.38194 24792 ft 466 kts 181°
2026-04-25 17:14 54.58424 13.39130 25225 ft 470 kts 181°
2026-04-25 17:14 54.55184 13.40074 25650 ft 474 kts 181°
2026-04-25 17:14 54.51927 13.41022 25961 ft 477 kts 181°
2026-04-25 17:15 54.48644 13.41978 26455 ft 479 kts 180°
2026-04-25 17:15 54.45345 13.42936 26874 ft 482 kts 180°
2026-04-25 17:15 54.42024 13.43896 27250 ft 486 kts 180°
2026-04-25 17:15 54.38668 13.44865 27639 ft 490 kts 180°
2026-04-25 17:16 54.35300 13.45835 28177 ft 490 kts 181°
2026-04-25 17:16 54.31937 13.46808 28677 ft 491 kts 181°
2026-04-25 17:16 54.28549 13.47783 28980 ft 496 kts 180°
2026-04-25 17:16 54.25129 13.48760 29153 ft 501 kts 180°
2026-04-25 17:17 54.21690 13.49745 29628 ft 500 kts 180°
2026-04-25 17:17 54.18253 13.50731 30036 ft 502 kts 180°
2026-04-25 17:17 54.14801 13.51717 30286 ft 506 kts 180°
2026-04-25 17:17 54.11366 13.52694 30522 ft 509 kts 180°
2026-04-25 17:18 54.07859 13.53690 30810 ft 512 kts 180°
2026-04-25 17:18 54.04345 13.54688 31094 ft 514 kts 180°
2026-04-25 17:18 54.00813 13.55690 31381 ft 516 kts 180°
2026-04-25 17:18 53.97262 13.56696 31579 ft 518 kts 179°
2026-04-25 17:19 53.93709 13.57701 31893 ft 518 kts 179°
2026-04-25 17:19 53.90152 13.58708 32246 ft 518 kts 179°
2026-04-25 17:19 53.86601 13.59711 32606 ft 518 kts 179°
2026-04-25 17:19 53.83052 13.60711 32951 ft 517 kts 179°
2026-04-25 17:20 53.79492 13.61711 33273 ft 518 kts 179°
2026-04-25 17:20 53.75939 13.62706 33604 ft 518 kts 179°
2026-04-25 17:20 53.72390 13.63698 33941 ft 517 kts 179°
2026-04-25 17:20 53.68842 13.64689 34273 ft 514 kts 178°
2026-04-25 17:21 53.65346 13.65669 34871 ft 505 kts 178°
2026-04-25 17:21 53.61897 13.66636 35326 ft 501 kts 178°
2026-04-25 17:21 53.58453 13.67594 35575 ft 502 kts 178°
2026-04-25 17:21 53.55001 13.68546 35753 ft 504 kts 178°
2026-04-25 17:22 53.51537 13.69498 35985 ft 504 kts 178°
2026-04-25 17:22 53.50373 13.69819 36092 ft 503 kts 178°
2026-04-25 17:22 53.44655 13.71397 36660 ft 498 kts 178°
2026-04-25 17:22 53.41240 13.72340 36958 ft 497 kts 178°
2026-04-25 17:23 53.34346 13.74225 36944 ft 504 kts 178°
2026-04-25 17:23 53.27454 13.76115 36927 ft 498 kts 178°
2026-04-25 17:24 53.20639 13.77983 36937 ft 494 kts 178°
2026-04-25 17:24 53.13964 13.79848 36921 ft 487 kts 176°
2026-04-25 17:25 53.07222 13.81700 36934 ft 489 kts 178°
2026-04-25 17:25 53.00484 13.83467 36974 ft 491 kts 178°
2026-04-25 17:26 52.93782 13.85246 36960 ft 491 kts 178°
2026-04-25 17:26 52.87055 13.87050 36946 ft 489 kts 177°
2026-04-25 17:27 52.80348 13.88850 36942 ft 488 kts 177°
2026-04-25 17:27 52.75866 13.90048 36945 ft 487 kts 177°
2026-04-25 17:28 52.66964 13.92419 36947 ft 487 kts 177°
2026-04-25 17:28 52.60281 13.94192 36946 ft 486 kts 177°
2026-04-25 17:29 52.53601 13.95958 36943 ft 486 kts 177°
2026-04-25 17:29 52.46930 13.97717 36949 ft 486 kts 177°
2026-04-25 17:30 52.40257 13.99470 36906 ft 485 kts 177°
2026-04-25 17:30 52.33599 14.01216 36960 ft 484 kts 177°
2026-04-25 17:31 52.26941 14.02939 36946 ft 485 kts 177°
2026-04-25 17:31 52.20290 14.04677 36961 ft 484 kts 177°
2026-04-25 17:32 52.13630 14.06415 36940 ft 483 kts 176°
2026-04-25 17:32 52.06992 14.08137 36945 ft 483 kts 176°
2026-04-25 17:33 52.00366 14.09845 36957 ft 482 kts 176°
2026-04-25 17:33 51.93787 14.11529 36955 ft 482 kts 177°
2026-04-25 17:34 51.87177 14.13217 36965 ft 480 kts 176°
2026-04-25 17:34 51.80577 14.14906 36953 ft 480 kts 176°
2026-04-25 17:35 51.73985 14.16603 36962 ft 479 kts 176°
2026-04-25 17:35 51.67405 14.18281 36965 ft 479 kts 176°
2026-04-25 17:36 51.61944 14.19665 36965 ft 477 kts 176°
2026-04-25 17:36 51.55382 14.21318 36965 ft 477 kts 176°
2026-04-25 17:37 51.48830 14.22960 36972 ft 476 kts 176°
2026-04-25 17:37 51.42285 14.24616 36973 ft 476 kts 176°
2026-04-25 17:38 51.36856 14.25983 36972 ft 474 kts 176°
2026-04-25 17:38 51.29235 14.27888 36978 ft 473 kts 176°
2026-04-25 17:39 51.22729 14.29504 36983 ft 473 kts 176°
2026-04-25 17:39 51.16233 14.31110 36949 ft 473 kts 176°
2026-04-25 17:40 51.09738 14.32720 36980 ft 472 kts 176°
2026-04-25 17:40 51.03260 14.34325 36986 ft 472 kts 177°
2026-04-25 17:41 50.96759 14.35926 36982 ft 472 kts 177°
2026-04-25 17:41 50.90330 14.38244 36948 ft 480 kts 163°
2026-04-25 17:42 50.84147 14.42232 36983 ft 480 kts 162°
2026-04-25 17:42 50.78016 14.46262 36986 ft 481 kts 162°
2026-04-25 17:43 50.71774 14.50283 36992 ft 481 kts 162°
2026-04-25 17:43 50.65607 14.54194 36948 ft 481 kts 162°
2026-04-25 17:44 50.59399 14.58111 36997 ft 481 kts 162°
2026-04-25 17:44 50.53183 14.62031 36981 ft 481 kts 162°
2026-04-25 17:45 50.47984 14.65297 36991 ft 480 kts 162°
2026-04-25 17:45 50.40771 14.69810 36980 ft 480 kts 162°
2026-04-25 17:46 50.34582 14.73671 36984 ft 479 kts 162°
2026-04-25 17:46 50.28397 14.77519 36988 ft 478 kts 162°
2026-04-25 17:47 50.22225 14.81348 36994 ft 477 kts 162°
2026-04-25 17:47 50.16046 14.85170 36991 ft 477 kts 162°
2026-04-25 17:48 50.06786 14.90880 36987 ft 477 kts 162°
2026-04-25 17:49 50.00611 14.94674 36990 ft 477 kts 162°
2026-04-25 17:49 49.94440 14.98454 36998 ft 477 kts 163°
2026-04-25 17:50 49.88265 15.02227 36975 ft 476 kts 162°
2026-04-25 17:50 49.82102 15.05983 36986 ft 476 kts 162°
2026-04-25 17:51 49.75978 15.09705 37007 ft 476 kts 163°
2026-04-25 17:51 49.69818 15.13437 36991 ft 476 kts 163°
2026-04-25 17:52 49.63658 15.17160 36966 ft 475 kts 162°
2026-04-25 17:52 49.57513 15.20859 36987 ft 473 kts 163°
2026-04-25 17:53 49.51385 15.24532 36995 ft 472 kts 162°
2026-04-25 17:53 49.45271 15.28197 36997 ft 471 kts 162°
2026-04-25 17:54 49.39161 15.31863 36968 ft 471 kts 162°
2026-04-25 17:54 49.33075 15.35497 36991 ft 469 kts 162°
2026-04-25 17:55 49.26988 15.39115 36993 ft 468 kts 163°
2026-04-25 17:55 49.20918 15.42715 36983 ft 468 kts 163°
2026-04-25 17:56 49.14849 15.46304 36963 ft 467 kts 162°
2026-04-25 17:56 49.08787 15.49880 36985 ft 467 kts 162°
2026-04-25 17:57 49.02720 15.53449 36986 ft 467 kts 162°
2026-04-25 17:57 48.96648 15.57012 36998 ft 468 kts 163°
2026-04-25 17:58 48.90567 15.60571 36963 ft 469 kts 163°
2026-04-25 17:58 48.84468 15.64062 36976 ft 468 kts 164°
2026-04-25 17:59 48.78384 15.67400 36992 ft 468 kts 164°
2026-04-25 17:59 48.72215 15.70766 36986 ft 468 kts 164°
2026-04-25 18:00 48.66129 15.74094 36954 ft 468 kts 164°
2026-04-25 18:00 48.60009 15.77443 36983 ft 467 kts 164°
2026-04-25 18:01 48.53902 15.80779 36988 ft 466 kts 164°
2026-04-25 18:01 48.47801 15.84102 36981 ft 466 kts 164°
2026-04-25 18:02 48.41714 15.87409 36965 ft 465 kts 165°
2026-04-25 18:02 48.35637 15.90702 36980 ft 463 kts 165°
2026-04-25 18:03 48.29579 15.93975 36988 ft 462 kts 165°
2026-04-25 18:03 48.23530 15.97236 36987 ft 462 kts 165°
2026-04-25 18:04 48.17491 16.00483 36971 ft 461 kts 165°
2026-04-25 18:04 48.11463 16.03716 36993 ft 460 kts 165°
2026-04-25 18:05 48.05444 16.06936 36986 ft 459 kts 165°
2026-04-25 18:05 47.99423 16.10149 36990 ft 459 kts 165°
2026-04-25 18:06 47.93452 16.13328 36966 ft 458 kts 165°
2026-04-25 18:06 47.87452 16.16514 36984 ft 458 kts 165°
2026-04-25 18:07 47.81444 16.19696 36987 ft 458 kts 165°
2026-04-25 18:07 47.75438 16.22869 36991 ft 458 kts 166°
2026-04-25 18:08 47.69427 16.26037 36992 ft 459 kts 166°
2026-04-25 18:08 47.63392 16.29210 36981 ft 461 kts 166°
2026-04-25 18:09 47.57341 16.32384 36984 ft 461 kts 166°
2026-04-25 18:09 47.51286 16.35552 36971 ft 462 kts 166°
2026-04-25 18:10 47.45218 16.38719 36958 ft 463 kts 166°
2026-04-25 18:10 47.39146 16.41877 36979 ft 463 kts 166°
2026-04-25 18:11 47.33064 16.45038 36978 ft 464 kts 166°
2026-04-25 18:11 47.27026 16.48264 36966 ft 466 kts 162°
2026-04-25 18:12 47.21035 16.52121 36965 ft 467 kts 160°
2026-04-25 18:12 47.15165 16.56034 36960 ft 466 kts 160°
2026-04-25 18:13 47.09217 16.59945 36967 ft 464 kts 161°
2026-04-25 18:13 47.03318 16.63774 36970 ft 463 kts 161°
2026-04-25 18:14 46.94521 16.69444 36963 ft 461 kts 161°
2026-04-25 18:14 46.88652 16.73216 36968 ft 460 kts 161°
2026-04-25 18:15 46.82790 16.76976 36972 ft 460 kts 161°
2026-04-25 18:15 46.76933 16.80725 36973 ft 460 kts 161°
2026-04-25 18:16 46.71079 16.84463 36967 ft 459 kts 161°
2026-04-25 18:17 46.62311 16.90044 36957 ft 459 kts 161°
2026-04-25 18:17 46.56463 16.93756 36982 ft 458 kts 161°
2026-04-25 18:18 46.50619 16.97457 36960 ft 458 kts 161°
2026-04-25 18:18 46.44809 17.01126 36970 ft 458 kts 161°
2026-04-25 18:19 46.38961 17.04812 36977 ft 459 kts 161°
2026-04-25 18:19 46.33104 17.08495 36973 ft 459 kts 161°
2026-04-25 18:20 46.28186 17.11580 36968 ft 460 kts 161°
2026-04-25 18:20 46.21360 17.15852 36979 ft 460 kts 161°
2026-04-25 18:21 46.15475 17.19526 36983 ft 462 kts 161°
2026-04-25 18:21 46.09570 17.23203 36977 ft 463 kts 161°
2026-04-25 18:22 46.03657 17.26877 36970 ft 463 kts 161°
2026-04-25 18:22 45.97732 17.30547 36969 ft 463 kts 161°
2026-04-25 18:23 45.91794 17.34163 36970 ft 463 kts 162°
2026-04-25 18:23 45.85855 17.37751 36977 ft 463 kts 162°
2026-04-25 18:24 45.79953 17.41313 36977 ft 463 kts 162°
2026-04-25 18:24 45.74016 17.44891 36979 ft 463 kts 162°
2026-04-25 18:25 45.68073 17.48466 36971 ft 463 kts 162°
2026-04-25 18:25 45.62128 17.52036 36972 ft 463 kts 162°
2026-04-25 18:26 45.56188 17.55593 36963 ft 463 kts 161°
2026-04-25 18:26 45.50245 17.59144 36981 ft 463 kts 161°
2026-04-25 18:27 45.44300 17.62688 36975 ft 464 kts 161°
2026-04-25 18:27 45.38349 17.66227 36976 ft 464 kts 161°
2026-04-25 18:28 45.32396 17.69760 36975 ft 464 kts 161°
2026-04-25 18:28 45.27446 17.72690 36971 ft 464 kts 161°
2026-04-25 18:29 45.18504 17.77970 36973 ft 464 kts 161°
2026-04-25 18:30 45.06602 17.84970 36976 ft 463 kts 161°
2026-04-25 18:30 45.00617 17.88336 36984 ft 462 kts 164°
2026-04-25 18:31 44.94557 17.91370 36972 ft 462 kts 165°
2026-04-25 18:31 44.88492 17.94363 36975 ft 462 kts 164°
2026-04-25 18:32 44.82426 17.97397 36981 ft 462 kts 164°
2026-04-25 18:32 44.76367 18.00448 36984 ft 462 kts 164°
2026-04-25 18:33 44.70310 18.03497 36974 ft 462 kts 164°
2026-04-25 18:33 44.64251 18.06541 36978 ft 462 kts 163°
2026-04-25 18:34 44.58199 18.09572 36985 ft 462 kts 164°
2026-04-25 18:34 44.52183 18.12578 36994 ft 462 kts 164°
2026-04-25 18:35 44.46086 18.15619 36984 ft 462 kts 163°
2026-04-25 18:35 44.40064 18.18615 36990 ft 462 kts 163°
2026-04-25 18:36 44.33999 18.21626 36999 ft 463 kts 163°
2026-04-25 18:36 44.27926 18.24635 36989 ft 463 kts 163°
2026-04-25 18:37 44.21853 18.27637 36995 ft 463 kts 163°
2026-04-25 18:37 44.15776 18.30633 37018 ft 463 kts 163°
2026-04-25 18:38 44.09706 18.33620 37003 ft 463 kts 163°
2026-04-25 18:38 44.03637 18.36601 37025 ft 462 kts 163°
2026-04-25 18:39 43.97574 18.39571 37019 ft 462 kts 163°
2026-04-25 18:39 43.91510 18.42536 37027 ft 462 kts 163°
2026-04-25 18:40 43.85439 18.45498 37017 ft 461 kts 163°
2026-04-25 18:40 43.79434 18.48421 37015 ft 460 kts 163°
2026-04-25 18:41 43.73402 18.51351 37017 ft 459 kts 163°
2026-04-25 18:41 43.67381 18.54269 37019 ft 458 kts 163°
2026-04-25 18:42 43.62339 18.56708 37010 ft 458 kts 162°
2026-04-25 18:42 43.55362 18.60075 37015 ft 457 kts 162°
2026-04-25 18:43 43.49368 18.62962 37023 ft 456 kts 162°
2026-04-25 18:43 43.43366 18.65845 37012 ft 457 kts 162°
2026-04-25 18:44 43.37376 18.68734 37016 ft 457 kts 160°
2026-04-25 18:44 43.31857 18.73100 37010 ft 461 kts 142°
2026-04-25 18:45 43.26934 18.78725 37025 ft 461 kts 140°
2026-04-25 18:45 43.22016 18.84381 37011 ft 461 kts 141°
2026-04-25 18:46 43.17074 18.89977 37019 ft 462 kts 141°
2026-04-25 18:46 43.12099 18.95554 37025 ft 462 kts 141°
2026-04-25 18:47 43.07150 19.01082 37027 ft 463 kts 141°
2026-04-25 18:47 43.02155 19.06650 37030 ft 463 kts 141°
2026-04-25 18:48 42.97164 19.12205 37036 ft 463 kts 141°
2026-04-25 18:48 42.92167 19.17754 37029 ft 463 kts 141°
2026-04-25 18:49 42.87170 19.23291 37024 ft 463 kts 141°
2026-04-25 18:49 42.82172 19.28818 37029 ft 462 kts 141°
2026-04-25 18:50 42.77179 19.34327 37017 ft 462 kts 141°
2026-04-25 18:50 42.72195 19.39815 37027 ft 460 kts 141°
2026-04-25 18:51 42.68057 19.44362 37027 ft 460 kts 141°
2026-04-25 18:51 42.62237 19.50740 37023 ft 460 kts 141°
2026-04-25 18:52 42.57266 19.56182 37024 ft 459 kts 141°
2026-04-25 18:52 42.51863 19.60759 36486 ft 461 kts 158°
2026-04-25 18:53 42.48825 19.62118 35949 ft 458 kts 166°
2026-04-25 18:53 42.45725 19.63129 35349 ft 458 kts 167°
2026-04-25 18:53 42.42637 19.64111 34926 ft 454 kts 167°
2026-04-25 18:53 42.39618 19.65078 34499 ft 451 kts 167°
2026-04-25 18:54 42.33568 19.67073 33595 ft 445 kts 166°
2026-04-25 18:54 42.30574 19.68076 33128 ft 441 kts 166°
2026-04-25 18:54 42.27606 19.69071 32722 ft 436 kts 166°
2026-04-25 18:55 42.24679 19.70053 32295 ft 432 kts 166°
2026-04-25 18:55 42.21767 19.71027 31859 ft 429 kts 166°
2026-04-25 18:55 42.18882 19.71990 31450 ft 426 kts 166°
2026-04-25 18:55 42.16015 19.72947 31047 ft 422 kts 166°
2026-04-25 18:56 42.13197 19.73885 30651 ft 419 kts 166°
2026-04-25 18:56 42.10383 19.74823 30269 ft 416 kts 166°
2026-04-25 18:56 42.07584 19.75753 29843 ft 413 kts 166°
2026-04-25 18:56 42.04916 19.77081 29376 ft 408 kts 147°
2026-04-25 18:57 42.02790 19.79514 29038 ft 399 kts 128°
2026-04-25 18:57 42.01358 19.82660 28634 ft 393 kts 110°
2026-04-25 18:57 42.00670 19.86160 28237 ft 386 kts 95°
2026-04-25 18:57 42.00581 19.88539 27949 ft 382 kts 84°
2026-04-25 18:58 42.01261 19.93156 27473 ft 374 kts 73°
2026-04-25 18:58 42.02693 19.99844 26638 ft 370 kts 72°
2026-04-25 18:58 42.03413 20.03152 26255 ft 367 kts 72°
2026-04-25 18:59 42.04807 20.09722 25486 ft 363 kts 72°
2026-04-25 18:59 42.06160 20.16246 24743 ft 360 kts 72°
2026-04-25 19:00 42.07490 20.22717 24009 ft 358 kts 72°
2026-04-25 19:00 42.08149 20.25942 23640 ft 357 kts 72°
2026-04-25 19:01 42.09461 20.32365 22773 ft 354 kts 72°
2026-04-25 19:01 42.10110 20.35554 22384 ft 352 kts 72°
2026-04-25 19:01 42.10752 20.38712 22030 ft 348 kts 72°
2026-04-25 19:01 42.11380 20.41800 21664 ft 345 kts 72°
2026-04-25 19:02 42.12637 20.47998 20938 ft 341 kts 73°
2026-04-25 19:02 42.13457 20.50965 20522 ft 336 kts 57°
2026-04-25 19:02 42.14709 20.53555 20266 ft 325 kts 54°
2026-04-25 19:03 42.16389 20.56925 19774 ft 322 kts 54°
2026-04-25 19:03 42.18440 20.61101 19203 ft 326 kts 55°
2026-04-25 19:03 42.19705 20.63710 18848 ft 338 kts 56°
2026-04-25 19:04 42.22245 20.68995 18062 ft 329 kts 56°
2026-04-25 19:04 42.23469 20.71551 17665 ft 321 kts 56°
2026-04-25 19:05 42.25832 20.76512 16955 ft 308 kts 56°
2026-04-25 19:05 42.28133 20.81350 16303 ft 307 kts 55°
2026-04-25 19:05 42.29312 20.83829 15972 ft 321 kts 56°
2026-04-25 19:06 42.30530 20.86393 15617 ft 324 kts 56°
2026-04-25 19:06 42.32907 20.91411 14897 ft 310 kts 56°
2026-04-25 19:06 42.34055 20.93836 14558 ft 303 kts 56°
2026-04-25 19:07 42.36293 20.98568 13909 ft 296 kts 55°
2026-04-25 19:07 42.37401 21.00911 13537 ft 296 kts 55°
2026-04-25 19:08 42.39692 21.05760 12748 ft 314 kts 56°
2026-04-25 19:08 42.40862 21.08243 12374 ft 308 kts 56°
2026-04-25 19:09 42.44189 21.15314 11392 ft 287 kts 56°
2026-04-25 19:09 42.44535 21.16050 11291 ft 286 kts 56°
2026-04-25 19:09 42.47174 21.22303 10543 ft 299 kts 77°
2026-04-25 19:10 42.47114 21.25107 10436 ft 300 kts 105°
2026-04-25 19:10 42.46092 21.27510 10161 ft 291 kts 135°
2026-04-25 19:10 42.44602 21.29207 10127 ft 272 kts 144°
2026-04-25 19:10 42.43106 21.30678 9916 ft 259 kts 145°
2026-04-25 19:11 42.41650 21.32103 9497 ft 258 kts 144°
2026-04-25 19:11 42.40212 21.33534 9138 ft 256 kts 144°
2026-04-25 19:11 42.38784 21.34969 8774 ft 256 kts 144°
2026-04-25 19:11 42.37319 21.36336 8384 ft 256 kts 155°
2026-04-25 19:12 42.35592 21.36737 7983 ft 253 kts 189°
2026-04-25 19:12 42.33986 21.35901 7673 ft 247 kts 217°
2026-04-25 19:12 42.32783 21.34296 7371 ft 242 kts 233°
2026-04-25 19:12 42.31778 21.32491 7043 ft 240 kts 235°
2026-04-25 19:13 42.30792 21.30676 6710 ft 240 kts 235°
2026-04-25 19:13 42.29768 21.28874 6628 ft 244 kts 234°
2026-04-25 19:13 42.28889 21.26935 6525 ft 240 kts 253°
2026-04-25 19:13 42.28790 21.24751 6175 ft 232 kts 283°
2026-04-25 19:14 42.29438 21.22778 5545 ft 232 kts 306°
2026-04-25 19:14 42.29756 21.22214 5331 ft 233 kts 309°
2026-04-25 19:14 42.31558 21.19456 4414 ft 233 kts 313°
2026-04-25 19:14 42.32610 21.17891 4294 ft 220 kts 313°
2026-04-25 19:15 42.33604 21.16400 4196 ft 206 kts 312°
2026-04-25 19:15 42.34523 21.15013 4180 ft 194 kts 313°
2026-04-25 19:15 42.35412 21.13666 4184 ft 191 kts 312°
2026-04-25 19:15 42.36294 21.12324 4190 ft 191 kts 312°
2026-04-25 19:16 42.37184 21.10965 4205 ft 195 kts 311°
2026-04-25 19:16 42.38088 21.09583 4203 ft 197 kts 311°
2026-04-25 19:16 42.38999 21.08187 4204 ft 198 kts 311°
2026-04-25 19:16 42.39910 21.06791 4200 ft 197 kts 311°
2026-04-25 19:17 42.40876 21.05505 4169 ft 194 kts 330°
2026-04-25 19:17 42.42154 21.05136 4231 ft 188 kts 358°
2026-04-25 19:17 42.43439 21.05017 4200 ft 182 kts 355°
2026-04-25 19:17 42.44685 21.04878 4207 ft 178 kts 355°
2026-04-25 19:18 42.45926 21.04748 4042 ft 181 kts 356°
2026-04-25 19:18 42.47180 21.04620 3798 ft 180 kts 356°
2026-04-25 19:18 42.48407 21.04495 3519 ft 178 kts 356°
2026-04-25 19:18 42.49614 21.04371 3263 ft 170 kts 356°
2026-04-25 19:19 42.50757 21.04254 3026 ft 159 kts 356°
2026-04-25 19:19 42.51819 21.04145 2786 ft 143 kts 356°
2026-04-25 19:19 42.52789 21.04047 2516 ft 136 kts 355°
2026-04-25 19:19 42.53106 21.04014 2474 ft 134 kts 355°
2026-04-25 19:20 42.54668 21.03853 2114 ft 135 kts 354°
2026-04-25 19:20 42.55598 21.03752 1873 ft 134 kts 356°
2026-04-25 19:20 42.56498 21.03656 1782 ft 121 kts 355°
2026-04-25 19:20 42.57186 21.03594 1788 ft 72 kts 356°
2026-04-25 19:21 42.57520 21.03558 1788 ft 27 kts 355°
2026-04-25 19:21 42.57916 21.03410 1785 ft 17 kts 326°
2026-04-25 19:21 42.57956 21.03375 1786 ft 1 kts 327°
2026-04-25 19:22 42.57959 21.03371 1786 ft 1 kts 327°
2026-04-25 19:22 42.57965 21.03367 1787 ft 1 kts 327°
2026-04-25 19:22 42.57975 21.03358 1787 ft 1 kts 327°
2026-04-25 19:23 42.57980 21.03353 1787 ft 1 kts 327°
2026-04-25 19:23 42.57989 21.03345 1788 ft 1 kts 327°
2026-04-25 19:23 42.57994 21.03341 1788 ft 1 kts 327°
2026-04-25 19:24 42.57998 21.03337 1788 ft 1 kts 320°
2026-04-25 19:24 42.58005 21.03318 1787 ft 5 kts 285°
2026-04-25 19:24 42.57850 21.03288 1786 ft 19 kts 176°
2026-04-25 19:25 42.57596 21.03274 1785 ft 17 kts 240°
2026-04-25 19:25 42.57524 21.03216 1786 ft 7 kts 209°
2026-04-25 19:25 42.57508 21.03157 1786 ft 7 kts 265°
2026-04-25 19:26 42.57505 21.03112 1786 ft 0 kts 266°
2026-04-25 19:26 42.57505 21.03108 1786 ft 2 kts 266°
2026-04-25 19:26 42.57505 21.03106 1786 ft 0 kts 266°